Weather History for Charlevoix, MI

Change the Weather History Date:

Tuesday, October 1, 2013

  Actual Average Record
Temperature  
Mean Temperature 66 °F -  
Max Temperature 77 °F 65 °F 80 °F (2002)
Min Temperature 54 °F 50 °F 37 °F (2003)
Growing Degree Days 16 (Base 50)    
Moisture  
Dew Point 58 °F    
Average Humidity 76    
Maximum Humidity 84    
Minimum Humidity 57    
Precipitation  
Precipitation 0.00 in - - ()
Sea Level Pressure  
Sea Level Pressure 29.83 in    
Wind  
Wind Speed 10 mph (SSW)    
Max Wind Speed 21 mph    
Max Gust Speed 32 mph    
Visibility 10 miles    
Events      
Averages and records for this station are not official NWS values.
T = Trace of Precipitation, MM = Missing Value Source: NWS Daily Summary

Daily Weather History Graph

Daily Weather History Graph

Search for Another Location

Airport:

Trip Planner

Search our weather history database for the weather conditions in past years. The results will help you decide how hot, cold, wet, or windy it might be!

Date:

Astronomy

Oct. 01, 2013 Rise Set
Actual Time 7:39 AM EDT 7:20 PM EDT
Civil Twilight 7:10 AM EDT 7:50 PM EDT
Nautical Twilight 6:35 AM EDT 8:24 PM EDT
Astronomical Twilight 6:01 AM EDT 8:59 PM EDT
Moon 4:04 AM EDT (10/1) 5:30 PM EDT (10/1)
Length of Visible Light 12h 40m
Length of Day
11h 41m
Waning Crescent, 12% of the Moon is Illuminated
Oct 1
Waning Crescent
Oct 4
New
Oct 11
First Quarter
Oct 18
Full
Oct 26
Last Quarter

Hourly Weather History & Observations

Time (EDT) Temp. Dew Point Humidity Pressure Visibility Wind Dir Wind Speed Gust Speed Precip Events Conditions
12:15 AM 58.5 °F 50.9 °F 76% 29.89 in 10.0 mi South 8.1 mph - N/A   Clear
12:34 AM 57.9 °F 50.9 °F 77% 29.89 in 10.0 mi SSE 4.6 mph - N/A   Clear
12:55 AM 58.3 °F 50.9 °F 76% 29.90 in 10.0 mi South 4.6 mph - N/A   Clear
1:14 AM 58.5 °F 50.9 °F 76% 29.90 in 10.0 mi South 5.8 mph - N/A   Clear
1:35 AM 58.6 °F 50.9 °F 75% 29.90 in 10.0 mi South 8.1 mph - N/A   Clear
1:54 AM 59.0 °F 50.5 °F 73% 29.90 in 10.0 mi South 8.1 mph - N/A   Clear
2:14 AM 58.1 °F 50.4 °F 75% 29.90 in 10.0 mi South 6.9 mph - N/A   Clear
2:35 AM 56.5 °F 50.4 °F 80% 29.90 in 10.0 mi SSE 6.9 mph - N/A   Clear
2:54 AM 55.4 °F 50.2 °F 83% 29.90 in 10.0 mi SSE 6.9 mph - N/A   Clear
3:14 AM 55.6 °F 50.0 °F 81% 29.89 in 10.0 mi SSE 6.9 mph - N/A   Clear
3:35 AM 56.1 °F 50.0 °F 80% 29.89 in 10.0 mi SSE 5.8 mph - N/A   Clear
3:54 AM 56.1 °F 50.0 °F 80% 29.89 in 10.0 mi SSE 4.6 mph - N/A   Clear
4:14 AM 55.2 °F 50.0 °F 83% 29.88 in 10.0 mi SSE 6.9 mph - N/A   Clear
4:35 AM 54.7 °F 50.0 °F 84% 29.87 in 10.0 mi South 8.1 mph - N/A   Clear
4:54 AM 56.8 °F 50.4 °F 79% 29.87 in 10.0 mi South 10.4 mph - N/A   Clear
5:15 AM 57.9 °F 50.9 °F 77% 29.86 in 10.0 mi South 9.2 mph - N/A   Clear
5:34 AM 58.1 °F 51.3 °F 78% 29.86 in 10.0 mi South 9.2 mph - N/A   Clear
5:54 AM 57.7 °F 51.6 °F 80% 29.86 in 10.0 mi South 9.2 mph - N/A   Clear
6:15 AM 56.8 °F 51.6 °F 83% 29.85 in 10.0 mi South 8.1 mph - N/A   Clear
6:34 AM 56.7 °F 51.8 °F 84% 29.85 in 10.0 mi South 8.1 mph - N/A   Clear
6:55 AM 57.7 °F 52.7 °F 83% 29.86 in 10.0 mi South 9.2 mph - N/A   Clear
7:15 AM 59.4 °F 53.6 °F 81% 29.85 in 10.0 mi South 10.4 mph - N/A   Clear
7:34 AM 59.9 °F 54.0 °F 81% 29.85 in 10.0 mi South 11.5 mph - N/A   Clear
7:55 AM 60.1 °F 54.3 °F 81% 29.85 in 10.0 mi South 9.2 mph - N/A   Clear
8:14 AM 60.8 °F 54.9 °F 81% 29.85 in 10.0 mi SSW 8.1 mph - N/A   Clear
8:35 AM 60.8 °F 55.4 °F 82% 29.84 in 10.0 mi South 10.4 mph 17.3 mph N/A   Clear
8:55 AM 62.6 °F 56.3 °F 80% 29.84 in 10.0 mi SSW 11.5 mph 18.4 mph N/A   Clear
9:14 AM 62.8 °F 56.7 °F 80% 29.84 in 10.0 mi South 10.4 mph 17.3 mph N/A   Clear
9:35 AM 63.0 °F 57.2 °F 81% 29.83 in 10.0 mi South 9.2 mph - N/A   Clear
9:54 AM 63.1 °F 57.6 °F 82% 29.83 in 10.0 mi SSW 10.4 mph 19.6 mph N/A   Clear
10:15 AM 64.9 °F 58.3 °F 79% 29.82 in 10.0 mi SSW 10.4 mph 19.6 mph N/A   Clear
10:35 AM 65.7 °F 59.4 °F 80% 29.82 in 10.0 mi SSW 11.5 mph 23.0 mph N/A   Clear
10:54 AM 67.1 °F 59.9 °F 78% 29.82 in 10.0 mi SSW 16.1 mph 26.5 mph N/A   Clear
11:11 AM 68.0 °F 60.4 °F 77% 29.81 in 10.0 mi SSW 13.8 mph 23.0 mph N/A   Clear
11:38 AM 68.0 °F 60.8 °F 78% 29.80 in 10.0 mi SSW 13.8 mph 23.0 mph N/A   Clear
11:58 AM 69.8 °F 62.6 °F 78% 29.80 in 10.0 mi South 12.7 mph 19.6 mph N/A   Clear
12:17 PM 71.6 °F 62.6 °F 73% 29.80 in 10.0 mi SSW 16.1 mph 21.9 mph N/A   Clear
12:41 PM 71.6 °F 62.6 °F 73% 29.79 in 10.0 mi SSW 12.7 mph 21.9 mph N/A   Clear
12:57 PM 73.4 °F 62.6 °F 69% 29.79 in 10.0 mi South 15.0 mph 23.0 mph N/A   Clear
1:17 PM 73.4 °F 62.6 °F 69% 29.78 in 10.0 mi SSW 16.1 mph 21.9 mph N/A   Clear
1:38 PM 73.4 °F 62.6 °F 69% 29.77 in 10.0 mi South 16.1 mph 25.3 mph N/A   Clear
1:58 PM 75.2 °F 62.6 °F 65% 29.77 in 10.0 mi SSW 16.1 mph 26.5 mph N/A   Clear
2:19 PM 75.2 °F 62.6 °F 65% 29.75 in 10.0 mi SSW 15.0 mph 25.3 mph N/A   Clear
2:40 PM 77.0 °F 60.8 °F 57% 29.76 in 10.0 mi SSW 15.0 mph 25.3 mph N/A   Clear
2:59 PM 77.0 °F 60.8 °F 57% 29.76 in 10.0 mi SSW 12.7 mph 27.6 mph N/A   Clear
3:19 PM 73.4 °F 60.8 °F 65% 29.77 in 10.0 mi West 17.3 mph 24.2 mph N/A   Clear
3:42 PM 71.6 °F 62.6 °F 73% 29.78 in 10.0 mi WSW 16.1 mph 24.2 mph N/A   Clear
3:58 PM 71.6 °F 60.8 °F 69% 29.78 in 10.0 mi WSW 15.0 mph 24.2 mph N/A   Clear
4:18 PM 73.4 °F 60.8 °F 65% 29.77 in 10.0 mi WSW 20.7 mph 32.2 mph N/A   Clear
4:39 PM 73.4 °F 60.8 °F 65% 29.77 in 10.0 mi WSW 15.0 mph 28.8 mph N/A   Clear
4:59 PM 73.4 °F 60.8 °F 65% 29.77 in 10.0 mi SW 13.8 mph 23.0 mph N/A   Clear
5:04 PM 73.4 °F 60.4 °F 64% 29.77 in 10.0 mi SW 17.3 mph 26.5 mph N/A   Clear
5:14 PM 72.9 °F 60.6 °F 65% 29.77 in 10.0 mi SW 19.6 mph 24.2 mph N/A   Clear
5:34 PM 72.0 °F 60.8 °F 68% 29.79 in 10.0 mi SW 15.0 mph 23.0 mph N/A   Clear
5:55 PM 72.0 °F 61.7 °F 70% 29.80 in 10.0 mi WSW 15.0 mph 20.7 mph N/A   Clear
6:14 PM 71.8 °F 61.9 °F 71% 29.80 in 10.0 mi SW 12.7 mph 19.6 mph N/A   Clear
6:34 PM 70.7 °F 61.7 °F 73% 29.81 in 10.0 mi SW 12.7 mph 21.9 mph N/A   Clear
6:55 PM 70.2 °F 61.7 °F 74% 29.81 in 10.0 mi SSW 16.1 mph 23.0 mph N/A   Clear
7:14 PM 69.4 °F 61.7 °F 76% 29.81 in 10.0 mi SSW 16.1 mph 21.9 mph N/A   Clear
7:34 PM 68.9 °F 61.9 °F 78% 29.82 in 10.0 mi SSW 11.5 mph 20.7 mph N/A   Clear
7:55 PM 68.4 °F 61.9 °F 80% 29.82 in 10.0 mi SSW 10.4 mph 17.3 mph N/A   Clear
8:14 PM 68.0 °F 61.9 °F 81% 29.82 in 10.0 mi SSW 10.4 mph 16.1 mph N/A   Clear
8:35 PM 67.6 °F 61.9 °F 82% 29.83 in 10.0 mi SSW 8.1 mph - N/A   Clear
8:55 PM 67.5 °F 61.9 °F 82% 29.83 in 10.0 mi SSW 9.2 mph 16.1 mph N/A   Clear
9:14 PM 67.3 °F 62.1 °F 83% 29.84 in 10.0 mi SW 10.4 mph 19.6 mph N/A   Clear
9:35 PM 67.3 °F 62.1 °F 83% 29.83 in 10.0 mi SSW 11.5 mph 20.7 mph N/A   Clear
9:54 PM 67.1 °F 62.1 °F 84% 29.84 in 10.0 mi SW 11.5 mph 17.3 mph N/A   Clear
10:14 PM 66.7 °F 61.9 °F 84% 29.84 in 10.0 mi SW 11.5 mph - N/A   Scattered Clouds
10:35 PM 66.9 °F 61.9 °F 84% 29.84 in 10.0 mi SW 12.7 mph 16.1 mph N/A   Scattered Clouds
10:54 PM 67.1 °F 61.7 °F 83% 29.85 in 10.0 mi SW 10.4 mph - N/A   Mostly Cloudy
11:14 PM 67.5 °F 60.4 °F 78% 29.85 in 10.0 mi WSW 12.7 mph - N/A   Mostly Cloudy
11:35 PM 68.0 °F 59.4 °F 74% 29.87 in 10.0 mi WSW 15.0 mph 20.7 mph N/A   Mostly Cloudy
11:54 PM 66.7 °F 58.3 °F 74% 29.87 in 10.0 mi WSW 16.1 mph 21.9 mph N/A   Mostly Cloudy